Flag for U.S.A. Weather past 2 weeks in French Lick, Indiana, U.S.A.

Now
63 °F

Clear.


Feels Like: 63 °F
Forecast: 47 / 70 °F
Wind: No wind

Location: Huntingburg Airport

Current Time: Oct 25, 2014 at 9:53:23 PM

Latest Report: Oct 25, 2014 at 9:15 PM


Visibility: 10 mi

Pressure: 30.00 "Hg

Humidity: 68%

Dew point: 52 °F

Location of French LickLocation

Historic Weather in French Lick — Graph

°F

French Lick temperature yesterday

Maximum temperature yesterday: 68 °F (at 3:35 PM)
Minimum temperature yesterday: 37 °F (at 5:35 AM)
Average temperature yesterday: 52 °F

Past Weeks' High & Low Weather Summary

 TemperatureHumidityPressure
High77 °F (Oct 25, 4:55 PM)94% (Oct 15, 1:35 PM)30.33 "Hg (Oct 15, 1:35 PM)
Low36 °F (Oct 23, 7:15 AM)41% (Oct 17, 3:55 PM)29.73 "Hg (Oct 15, 2:35 PM)
Average53 °F74%30.04 "Hg
* Reported Oct 15 12:15 PM — Oct 25 8:35 PM, French Lick, Weather by CustomWeather, © 2014

Note: Actual official high and low records may vary slightly from our data, if they occured in-between our weather recording intervals... More about our weather records

Advertising

French Lick weather history for previous 24 hours

 ConditionsComfort  
Time TempWeatherWind HumidityBarometerVisibility
8:35 PM
Oct 25
63 °FClear.No wind68%30.00 "Hg10 mi
7:55 PM64 °FSunny.3 mph68%29.99 "Hg10 mi
7:35 PM66 °FSunny.No wind60%29.99 "Hg10 mi
7:15 PM70 °FSunny.5 mph53%29.99 "Hg10 mi
6:55 PM68 °FSunny.5 mph60%29.99 "Hg10 mi
6:35 PM72 °FSunny.6 mph53%29.99 "Hg10 mi
6:15 PM73 °FSunny.6 mph53%29.99 "Hg10 mi
5:55 PM75 °FSunny.8 mph50%29.99 "Hg10 mi
5:35 PM75 °FSunny.7 mph50%29.98 "Hg10 mi
5:15 PM75 °FSunny.8 mph54%29.98 "Hg10 mi
4:55 PM77 °FSunny.10 mph47%29.98 "Hg10 mi
4:35 PM75 °FSunny.8 mph57%29.98 "Hg10 mi
4:15 PM75 °FSunny.9 mph57%29.98 "Hg10 mi
3:55 PM75 °FSunny.7 mph61%29.98 "Hg10 mi
3:35 PM75 °FSunny.8 mph61%29.97 "Hg10 mi
3:15 PM75 °FSunny.8 mph61%29.98 "Hg10 mi
2:55 PM73 °FSunny.10 mph65%29.98 "Hg10 mi
2:35 PM73 °FSunny.9 mph69%29.99 "Hg10 mi
2:15 PM73 °FPassing clouds.7 mph69%29.99 "Hg10 mi
1:55 PM72 °FSunny.8 mph69%30.00 "Hg10 mi
1:35 PM72 °FSunny.9 mph69%30.00 "Hg10 mi
1:15 PM70 °FSunny.6 mph73%30.01 "Hg10 mi
12:55 PM70 °FSunny.6 mph69%30.01 "Hg10 mi
12:35 PM70 °FSunny.No wind69%30.02 "Hg10 mi
12:15 PM68 °FSunny.5 mph73%30.02 "Hg10 mi
11:55 AM66 °FBroken clouds.7 mph73%30.03 "Hg10 mi
11:35 AM64 °FPartly sunny.5 mph78%30.04 "Hg10 mi
11:15 AM63 °FScattered clouds.7 mph77%30.04 "Hg10 mi
10:55 AM63 °FBroken clouds.7 mph77%30.04 "Hg10 mi
10:35 AM61 °FSunny.6 mph77%30.03 "Hg10 mi
10:15 AM61 °FPartly sunny.7 mph77%30.03 "Hg10 mi
9:55 AM59 °FScattered clouds.6 mph82%30.04 "Hg10 mi
9:35 AM57 °FSunny.5 mph82%30.03 "Hg9 mi
9:15 AM57 °FPassing clouds.6 mph82%30.03 "Hg9 mi
8:55 AM57 °FPassing clouds.7 mph82%30.03 "Hg8 mi
8:35 AM55 °FPassing clouds.6 mph88%30.02 "Hg8 mi
7:55 AM55 °FPassing clouds.6 mph88%30.01 "Hg10 mi
7:35 AM55 °FPassing clouds.6 mph88%30.02 "Hg9 mi
7:15 AM55 °FOvercast.6 mph88%30.02 "Hg8 mi
6:55 AM55 °FOvercast.5 mph88%30.02 "Hg8 mi
6:35 AM55 °FOvercast.6 mph82%30.02 "Hg7 mi
6:15 AM55 °FOvercast.5 mph82%30.02 "Hg7 mi
5:55 AM55 °FOvercast.5 mph82%30.03 "Hg7 mi
5:35 AM54 °FOvercast.5 mph88%30.03 "Hg7 mi
5:15 AM54 °FOvercast.3 mph88%30.02 "Hg7 mi
4:55 AM54 °FMostly cloudy.6 mph82%30.02 "Hg6 mi
4:35 AM54 °FMostly cloudy.5 mph82%30.02 "Hg6 mi
4:15 AM52 °FPassing clouds.3 mph88%30.03 "Hg6 mi
3:55 AM50 °FPassing clouds.6 mph88%30.04 "Hg6 mi
3:35 AM48 °FClear.6 mph87%30.04 "Hg7 mi
3:15 AM50 °FClear.3 mph88%30.05 "Hg5 mi
2:55 AM48 °FClear.No wind94%30.05 "Hg5 mi
2:35 AM50 °FClear.5 mph88%30.05 "Hg5 mi
1:55 AM50 °FClear.3 mph88%30.05 "Hg7 mi
1:35 AM52 °FClear.6 mph82%30.05 "Hg9 mi
1:15 AM52 °FClear.5 mph82%30.05 "Hg8 mi
12:55 AM52 °FClear.No wind82%30.06 "Hg10 mi
12:35 AM54 °FClear.No wind82%30.06 "Hg10 mi
12:15 AM52 °FClear.No wind82%30.06 "Hg10 mi
11:55 PM
Oct 24
54 °FClear.No wind82%30.06 "Hg10 mi
11:35 PM52 °FClear.3 mph88%30.06 "Hg10 mi
11:15 PM52 °FClear.3 mph82%30.06 "Hg10 mi
10:55 PM52 °FClear.3 mph82%30.06 "Hg10 mi
10:35 PM55 °FClear.3 mph77%30.07 "Hg10 mi
10:15 PM54 °FClear.No wind77%30.07 "Hg10 mi
9:55 PM57 °FClear.3 mph72%30.06 "Hg10 mi
9:35 PM55 °FClear.6 mph77%30.05 "Hg10 mi
9:15 PM55 °FPassing clouds.3 mph77%30.05 "Hg10 mi
Weather by CustomWeather, © 2014

See weather overviewHow to use our weather pages